Orbital Elements at Epoch 2459200.5 (2020-Dec-17.0) TDB
Reference: JPL 18 (heliocentric ecliptic J2000)
Element | Value | Uncertainty (1-sigma) | Units |
e | .1495509161930923 | 5.6878e-08 | |
a | 2.465774700747755 | 1.3371e-08 | au |
q | 2.09701583512518 | 1.4623e-07 | au |
i | 5.621857583391614 | 4.575e-06 | deg |
node | 137.820361616764 | 4.9968e-05 | deg |
peri | 34.92545397287845 | 5.2289e-05 | deg |
M | 234.5671734836354 | 1.9031e-05 | deg |
tp | 2459693.262016083870 (2022-Apr-23.76201608) | 7.7128e-05 | TDB |
period | 1414.257580865797 3.87 | 1.1503e-05 3.149e-08 | d yr |
n | .2545505181450828 | 2.0705e-09 | deg/d |
Q | 2.834533566370329 | 1.537e-08 | au |
|
| | Orbit Determination Parameters
Additional Information
|